Vertical_Velocity
-1 0 -3 0 12 -2 -2 -1 -6 6 4 5 -1 2 3 1 0 -0 0 1 2 -0 -1 -1 0 -0 1 1 -0 -2 -1 -2 -1 -2 -4 -2 -3 -0
-2 1 -1 2 4 1 -4 -7 1 4 -1 6 3 2 -1 0 1 2 2 0 -1 -0 -0 -1 -1 1 1 1 0 -1 -1 -2 0 -1 -3 -1 -3 -2
3 -4 0 1 11 -3 2 3 -6 7 -3 9 4 0 1 3 2 0 0 -1 0 1 -0 -0 -0 2 3 0 1 1 -2 -2 -1 -2 -1 -0 -2 -3
2 -4 4 -1 3 -5 -3 -0 1 3 5 9 1 2 3 -0 1 2 1 2 -1 0 1 -0 1 2 0 -1 0 1 -3 -1 -2 -2 -2 0 -0 -0
1 -1 6 -0 3 -4 -2 -1 2 3 3 7 5 1 2 1 2 2 2 1 -1 0 1 2 0 1 0 -1 1 -1 -3 -1 -1 -2 0 -2 -2 -2
3 2 9 4 2 -2 3 2 6 2 3 5 4 2 2 2 3 5 1 -1 -1 1 2 0 -0 1 2 -2 1 -3 -2 1 -1 -1 -2 -2 -1 -1
-2 11 11 6 8 4 10 2 2 -0 8 3 -2 5 5 3 9 -8 1 1 1 2 0 -2 4 1 -5 2 -1 -1 1 3 -1 1 2 -2 -2 -1
-5 12 7 10 8 6 7 1 5 -3 5 -1 2 -1 7 0 -0 3 -3 5 -1 -1 0 -1 -4 -6 -0 -2 -1 1 -1 -1 1 0 1 -2 -1 1
2 0 -1 4 2 9 3 5 -1 8 -0 7 10 6 7 7 -8 5 6 -2 3 -4 -6 -6 -1 1 -1 -0 1 -0 -4 1 2 0 1 -0 -0 0
1 2 -4 -2 2 10 5 7 1 1 7 5 3 1 0 -1 1 1 -4 -6 -3 3 1 15 -0 -4 1 2 -1 -2 -1 2 3 2 2 -1 -1 3
7 3 -3 7 4 1 -3 3 6 5 6 5 4 -1 0 -5 -4 -8 2 -7 0 17 1 1 -1 -2 2 -1 -2 -1 3 3 1 1 1 -2 -2 -1
7 7 4 7 5 5 -1 2 5 6 2 -2 -4 0 -3 3 2 -3 5 6 6 -2 0 -0 2 0 -3 -2 -3 -0 2 3 2 -1 1 0 -1 0
-5 3 5 8 7 5 4 2 8 3 0 -2 1 2 11 12 6 1 7 -3 -4 2 -1 2 1 1 0 1 -1 -3 1 -3 1 -3 -0 1 0 -4
-10 4 3 3 7 5 -0 2 5 14 11 10 6 5 4 2 -1 -4 -1 -0 2 2 4 4 2 1 2 -0 0 -4 0 -3 -1 1 0 -3 -5 -3
-1 5 11 9 13 3 7 6 4 -1 4 7 2 -1 3 0 -3 -2 4 13 5 8 5 -0 -1 -1 2 -1 5 -8 2 -8 -2 -2 3 2 3 -2
-0 3 5 3 5 1 -3 5 5 5 8 1 1 1 -1 2 6 9 3 4 3 2 0 -1 -2 -4 -0 -4 2 1 2 11 3 -2 1 7 -1 -6
-2 1 3 4 7 7 8 5 7 3 5 4 2 3 5 4 5 5 1 -2 -1 2 1 1 -2 2 -2 -2 2 0 3 -1 -2 3 1 5 4 -4
-0 -4 -1 3 6 3 5 8 5 4 -5 -0 3 2 4 1 3 0 0 1 -3 -1 1 2 -3 3 2 -5 2 -3 -3 1 5 -2 -3 -5 9 -5
1 -3 -3 -3 -3 -1 -2 1 -1 -0 -3 -0 5 4 1 -2 0 -0 -0 -1 -2 1 -1 0 4 0 0 3 6 -8 -0 -7 2 6 -9 -1 -2 6
-3 -1 -3 -2 -0 2 -1 1 -2 0 1 2 0 -1 -2 3 1 0 -2 -2 3 -1 -1 0 4 -3 -2 -1 2 -4 -5 2 1 8 -1 -1 -10 -1
-1 -3 -3 0 1 -1 -0 -4 -3 -2 -2 -1 -1 1 1 -0 1 1 1 -4 3 -0 -1 -1 2 -1 -3 -3 3 3 -5 -7 -1 -0 -3 -6 -1 19
2 4 2 -2 0 1 -2 -1 0 1 1 3 2 1 2 1 1 -1 -0 -1 -2 -1 -1 -2 -1 -2 -2 -2 0 3 3 2 -6 -5 -14 -24 -17 -2
1 1 0 0 1 0 -1 0 -0 0 3 4 3 2 1 0 0 1 -1 -0 -1 -0 -3 -3 -3 -1 -1 1 4 2 -6 1 3 15 9 -15 -8 -12
Height
5674 5681 5689 5695 5700 5704 5714 5720 5725 5731 5736 5741 5745 5748 5751 5753 5755 5757 5758 5759 5759 5758 5757 5756 5754 5752 5749 5746 5743 5740 5737 5734 5729 5725 5721 5715 5711 5706
5656 5663 5672 5679 5688 5690 5698 5705 5712 5719 5723 5729 5733 5736 5739 5742 5744 5746 5747 5748 5747 5746 5745 5744 5742 5740 5737 5735 5732 5729 5725 5721 5717 5713 5708 5702 5698 5693
5641 5647 5656 5663 5670 5678 5685 5691 5697 5705 5710 5717 5721 5724 5728 5730 5732 5733 5734 5735 5735 5734 5733 5731 5729 5727 5725 5723 5720 5716 5713 5708 5704 5699 5693 5689 5685 5681
5628 5631 5639 5646 5655 5661 5670 5677 5682 5691 5699 5704 5708 5713 5716 5718 5720 5721 5722 5722 5722 5721 5720 5718 5717 5715 5713 5710 5707 5704 5699 5695 5690 5686 5680 5678 5672 5669
5613 5617 5625 5630 5640 5648 5658 5662 5667 5676 5683 5691 5695 5699 5703 5705 5707 5708 5709 5709 5709 5708 5707 5706 5704 5702 5699 5697 5694 5690 5685 5681 5677 5673 5669 5663 5660 5655
5600 5605 5611 5616 5627 5635 5644 5650 5656 5661 5668 5676 5682 5686 5689 5691 5693 5696 5697 5695 5695 5694 5694 5692 5689 5687 5686 5683 5679 5675 5672 5668 5664 5660 5656 5651 5646 5639
5589 5594 5600 5607 5613 5622 5630 5637 5643 5648 5653 5659 5667 5672 5675 5678 5680 5680 5681 5682 5683 5682 5679 5676 5675 5675 5671 5670 5665 5662 5658 5655 5652 5647 5641 5635 5629 5623
5579 5581 5588 5594 5600 5606 5616 5622 5628 5634 5639 5644 5651 5655 5660 5661 5664 5669 5667 5670 5670 5666 5662 5664 5661 5661 5659 5655 5650 5648 5646 5643 5638 5632 5625 5618 5613 5608
5566 5571 5577 5581 5586 5594 5603 5609 5614 5620 5624 5630 5635 5640 5645 5649 5652 5654 5654 5652 5651 5650 5651 5649 5648 5648 5643 5640 5637 5635 5632 5627 5622 5616 5610 5603 5598 5594
5554 5559 5566 5569 5574 5581 5589 5595 5600 5606 5611 5615 5620 5625 5629 5634 5637 5638 5636 5638 5638 5639 5639 5637 5634 5630 5629 5627 5624 5621 5616 5611 5606 5600 5593 5588 5584 5581
5541 5547 5554 5559 5564 5570 5575 5579 5586 5593 5596 5602 5607 5611 5615 5617 5619 5621 5624 5624 5627 5628 5625 5621 5618 5616 5615 5613 5610 5606 5601 5596 5590 5585 5579 5574 5570 5567
5535 5541 5545 5549 5553 5557 5561 5568 5574 5580 5583 5589 5594 5600 5604 5606 5609 5612 5614 5614 5614 5612 5611 5609 5606 5604 5602 5598 5595 5591 5586 5580 5574 5570 5564 5559 5555 5552
5533 5534 5536 5539 5542 5545 5551 5559 5565 5571 5576 5581 5585 5590 5594 5597 5599 5600 5602 5601 5600 5600 5599 5597 5594 5591 5587 5584 5579 5576 5571 5566 5561 5555 5549 5544 5540 5535
5530 5529 5528 5532 5536 5541 5544 5549 5556 5562 5566 5571 5576 5579 5582 5583 5585 5588 5589 5590 5590 5589 5587 5584 5581 5578 5573 5569 5564 5559 5556 5551 5547 5541 5536 5530 5524 5519
5528 5529 5528 5531 5533 5537 5540 5544 5548 5553 5557 5562 5566 5569 5570 5573 5576 5576 5576 5577 5578 5576 5573 5570 5567 5563 5560 5556 5550 5545 5542 5535 5532 5528 5523 5516 5510 5503
5524 5526 5526 5528 5532 5535 5538 5540 5544 5548 5552 5555 5558 5561 5563 5564 5565 5566 5566 5566 5566 5563 5560 5556 5553 5550 5546 5542 5538 5531 5529 5525 5519 5515 5512 5504 5494 5486
5519 5522 5525 5527 5528 5531 5534 5537 5540 5543 5546 5548 5549 5551 5553 5554 5555 5555 5554 5553 5551 5549 5547 5543 5540 5536 5532 5528 5524 5521 5516 5513 5508 5502 5498 5493 5479 5469
5513 5516 5519 5522 5524 5526 5529 5532 5534 5535 5537 5538 5540 5541 5542 5543 5542 5541 5540 5539 5538 5536 5533 5530 5526 5522 5519 5515 5512 5507 5504 5499 5494 5489 5483 5478 5468 5449
5506 5509 5513 5515 5517 5519 5520 5521 5523 5525 5526 5527 5527 5528 5528 5529 5529 5528 5527 5527 5525 5523 5521 5518 5514 5511 5507 5502 5498 5493 5490 5485 5482 5475 5466 5459 5453 5441
5500 5503 5505 5507 5508 5510 5511 5513 5514 5514 5515 5514 5515 5514 5515 5515 5516 5516 5515 5514 5512 5510 5508 5505 5502 5499 5496 5492 5485 5478 5475 5473 5468 5461 5451 5445 5435 5421
5491 5495 5497 5498 5500 5502 5503 5504 5505 5505 5505 5504 5503 5503 5503 5504 5504 5503 5504 5501 5498 5498 5496 5494 5490 5486 5483 5478 5473 5467 5459 5457 5451 5443 5435 5430 5421 5410
5483 5484 5487 5491 5492 5493 5494 5494 5493 5493 5493 5493 5493 5493 5493 5494 5494 5492 5490 5489 5487 5486 5484 5481 5478 5474 5469 5465 5461 5456 5449 5439 5430 5422 5411 5404 5398 5394
5474 5477 5480 5482 5482 5482 5483 5483 5483 5483 5483 5483 5482 5482 5482 5482 5482 5480 5479 5478 5476 5474 5471 5468 5465 5460 5456 5453 5448 5442 5434 5428 5420 5409 5392 5379 5370 5361